STARLINK-4088 (53155 NORAD) Tracking and Keplerian Element Data

This shows tracking and keplerian element data for the satellite.

Feedback or suggestion? Click here.




ElementValue
Catalog53155
NameSTARLINK-4088
Epoch Orbit130
Epoch Day269.91667824
Epoch Year2022
RAAN59.6145
Inclination53.2163
Eccentricity0.0001245
Argument of Perigee59.7493
Mean Anonmoly294.8797
Mean Motion15.18758292
Decay Rate-0.01138225
L11 53155U 22083Z 22269.91667824 -.01138225 00000+0 -58647-1 0 9992
L22 53155 53.2163 59.6145 0001245 59.7493 294.8797 15.18758292 1308

Live tracking and technical data element details for STARLINK-4088 (NORAD 53155). STARLINK-4088 can be tracked NOW for your location showing map with azimuth and elevation plus other details from your city location.

Track the satellite on the map from your city or location and see movement details for azimuth, elevation, latitude, longitude, range, height, and movement on the map or in text.







IsCatalogInMostPopularTable: catalog: 53155, numindb: 8
Update: records affected: 1



GetName: 53155 STARLINK-4088

Hit Count: updated at: Thu, 29 Sep 2022 12:08:35 GMT